Cloud_Cover
20 17 0 0 5 5 5 5 0 5 7 28 90 70 100 95 100 100 90 100 100 86 14 35 35 85 100 5 5 0 2 99 68 100 100 77 5 38 5 5 5 22 5
47 17 5 0 0 1 9 72 2 54 5 78 100 100 100 100 86 90 99 100 47 38 13 7 18 9 79 7 4 2 1 15 67 85 76 99 57 59 7 5 36 89 5
68 94 44 1 0 0 3 76 31 5 7 5 5 9 95 82 95 100 100 96 64 65 16 46 100 7 47 42 5 5 2 2 10 5 62 72 100 72 5 5 5 45 13
42 97 94 76 5 1 0 4 96 5 4 5 5 5 5 5 5 39 88 100 62 97 100 21 88 100 92 12 59 13 2 0 7 5 5 40 98 100 69 5 45 12 12
56 90 100 100 75 24 4 0 3 5 5 1 38 99 75 7 5 5 5 97 100 100 90 100 39 5 5 5 3 5 5 0 4 5 5 5 92 15 67 7 5 10 6
100 12 5 97 100 93 54 100 65 43 5 5 5 50 100 100 84 5 5 5 26 71 82 100 92 70 5 4 0 5 5 0 1 3 1 4 9 22 7 5 5 5 5
70 100 91 47 60 100 94 57 100 61 1 4 5 4 3 50 48 9 25 4 4 5 34 100 56 58 48 4 0 0 1 1 0 0 0 0 1 5 5 5 6 6 5
17 56 91 21 97 29 89 5 20 29 0 1 5 5 0 1 5 28 53 100 57 0 0 0 49 64 40 75 5 0 0 0 0 0 0 0 0 2 5 5 30 55 46
0 4 0 0 15 5 86 24 15 9 0 0 1 4 0 5 100 100 100 100 84 1 24 1 0 0 5 42 5 5 0 3 0 0 0 0 0 0 0 1 5 5 5
4 4 0 0 0 4 59 100 99 100 5 5 5 5 0 4 100 100 100 100 100 16 1 4 4 0 4 0 2 4 5 2 0 0 0 0 0 0 0 1 0 5 5
3 5 4 5 5 5 28 10 95 89 18 22 66 5 0 0 73 100 100 100 100 95 3 0 1 1 0 0 0 0 1 4 5 0 0 0 0 0 0 16 26 5 5
5 5 4 5 4 5 54 5 0 5 5 5 54 5 1 2 1 88 100 100 100 100 100 100 26 35 5 5 5 2 5 50 77 40 5 5 3 0 0 0 0 0 59
71 17 5 44 2 13 41 5 5 3 42 96 38 19 31 28 2 76 74 100 100 100 100 100 100 100 100 74 28 6 11 6 6 10 5 1 0 0 0 0 0 0 2
2 69 92 27 54 5 5 5 5 4 1 55 93 6 36 17 17 10 7 52 100 82 96 98 100 100 100 100 100 100 100 96 85 13 5 3 2 0 0 0 0 0 2
0 4 57 5 56 26 14 5 85 41 8 70 99 49 5 98 3 8 15 95 100 100 100 99 100 21 98 100 95 82 99 100 100 98 3 0 0 0 0 1 0 0 0
0 0 4 4 5 36 12 36 91 66 22 5 10 79 55 66 97 38 23 36 100 100 100 93 100 100 97 65 93 5 9 98 90 93 100 100 100 4 9 5 3 0 4
1 0 0 0 0 1 5 100 66 89 49 5 91 96 100 100 100 94 100 100 53 100 100 100 100 91 100 45 82 25 8 88 15 22 30 78 100 100 100 75 12 16 4
5 0 0 0 0 0 5 88 96 60 48 92 100 98 100 100 100 72 100 100 100 67 56 100 100 100 96 100 94 100 98 82 99 100 98 100 100 96 66 10 47 2 1
2 0 0 0 0 11 26 81 95 100 97 100 97 100 100 100 100 100 100 100 86 48 31 17 100 100 100 78 81 100 76 23 99 100 92 79 100 100 98 51 28 18 51
0 0 0 0 24 23 87 100 100 100 100 100 97 100 100 100 100 100 100 100 16 5 5 5 5 18 39 97 100 100 100 100 100 91 33 89 53 27 67 48 20 67 29
3 0 0 3 100 95 91 72 92 100 100 94 28 100 100 100 88 95 92 16 5 4 3 4 5 0 8 97 100 100 100 100 100 100 100 77 47 63 100 96 80 44 28
5 1 18 95 100 76 41 100 100 100 100 100 100 100 100 52 27 7 25 49 5 4 5 4 1 0 0 10 30 93 100 100 100 100 100 33 97 100 100 100 100 100 100
5 10 84 100 100 55 77 100 100 100 100 100 100 100 53 61 100 61 76 100 100 64 96 97 98 67 41 96 100 100 100 100 100 100 100 100 99 100 100 100 100 100 100
60 74 100 100 100 66 100 100 100 100 100 100 100 96 100 100 100 91 79 92 50 94 100 100 100 100 100 100 100 100 100 100 100 100 100 100 100 82 100 100 100 100 100
89 55 87 99 100 79 100 100 100 100 100 99 52 91 100 100 100 100 36 38 57 59 95 100 100 100 100 100 100 100 100 100 100 100 100 100 100 100 100 100 100 100 100
80 44 46 98 100 100 100 100 100 54 96 100 99 96 23 20 9 5 5 13 4 5 10 31 96 100 100 100 100 100 100 100 100 100 100 100 100 100 100 100 100 100 100